Wind_Speed
7 8 8 8 7 8 8 7 6 6 6 7 7 7 6 6 7 7 8 8 8 8 8 8 7 6 7 7 6 6 6 7 6 6 6 6 6 6 6 6 6 6 6
7 7 8 8 7 7 7 7 6 6 6 6 6 6 6 6 6 7 7 7 7 7 7 7 7 7 7 7 7 7 6 6 6 6 6 6 6 6 6 6 6 6 6
7 7 7 7 7 6 6 6 6 5 5 6 5 5 5 5 6 6 7 6 7 7 7 6 6 7 6 6 6 6 6 6 6 5 5 5 5 5 6 6 6 5 5
6 7 7 6 6 6 5 5 5 5 5 4 5 5 5 5 5 5 5 6 6 6 6 6 6 5 5 6 6 6 5 5 5 5 5 5 5 6 6 6 6 5 5
6 6 6 6 5 5 5 5 5 5 4 4 4 4 4 4 4 4 4 5 6 5 5 5 5 5 5 5 5 5 4 4 5 5 5 4 5 5 5 6 5 5 4
6 6 6 6 5 4 4 4 4 4 4 3 3 4 4 3 4 4 4 5 5 5 4 4 4 4 4 4 4 3 3 3 4 4 4 4 4 3 3 4 4 4 4
6 5 6 6 4 4 5 5 4 4 3 3 3 3 3 3 3 3 4 4 5 4 4 3 3 3 3 3 3 3 3 3 3 3 3 3 3 2 2 3 3 3 3
6 5 6 6 5 4 4 5 4 3 3 4 3 3 3 3 3 4 4 4 4 4 3 3 2 2 2 2 2 3 2 2 3 3 2 2 2 2 1 2 2 2 2
6 5 5 5 5 5 4 4 5 3 3 3 3 3 3 3 3 4 3 4 4 3 3 3 2 2 2 3 3 3 3 3 3 2 1 1 1 1 1 1 1 1 1
6 6 6 6 5 5 4 4 5 4 3 3 3 3 3 3 3 3 3 3 3 3 2 2 2 2 3 2 2 2 3 2 2 1 1 0 0 0 0 1 1 1 1
7 7 6 5 5 5 5 5 5 4 3 3 3 3 3 3 3 3 3 3 3 2 2 2 2 2 2 2 2 1 2 2 2 1 1 0 0 0 1 0 0 0 1
7 6 6 5 5 5 5 5 4 4 4 3 3 3 3 3 2 2 2 2 1 1 1 1 1 1 1 2 2 1 1 1 1 1 1 0 0 0 1 1 1 1 2
7 7 6 5 5 5 4 4 3 4 4 3 3 2 2 2 2 2 2 1 1 1 1 1 2 1 1 2 1 1 1 1 1 0 0 0 0 0 1 1 2 2 3
7 6 6 5 5 4 4 4 4 4 4 3 3 2 2 2 1 1 1 1 1 1 1 1 1 1 1 1 1 1 1 1 1 1 1 1 2 2 2 2 2 3 3
7 7 7 6 6 5 5 5 4 4 3 2 2 2 2 1 1 1 1 0 1 1 1 1 1 1 0 0 1 2 2 1 2 1 2 2 2 2 2 3 3 3 3
8 7 7 7 7 7 7 5 5 4 4 3 2 2 2 2 2 2 2 1 2 1 1 1 2 2 1 1 1 2 3 2 2 2 3 3 3 3 3 3 3 3 3
9 8 7 7 7 7 6 6 5 4 4 3 2 2 2 2 2 2 2 2 2 1 1 1 1 1 1 2 2 3 3 3 3 3 3 3 3 3 3 3 3 3 4
9 8 7 6 6 7 7 6 4 4 3 2 2 1 1 1 1 2 2 1 2 1 1 0 1 2 3 3 3 4 4 3 3 3 4 4 4 4 4 4 4 4 4
8 7 6 6 5 6 6 5 3 4 3 3 2 1 1 0 1 1 1 2 1 1 0 1 2 3 4 4 4 4 4 4 4 5 5 5 5 5 5 5 5 5 4
7 7 6 6 5 5 5 5 4 3 3 2 1 1 1 1 0 0 1 2 2 2 2 2 3 4 4 5 5 5 5 5 6 6 6 6 6 6 6 6 6 5 5
7 6 6 6 5 5 5 4 3 2 2 2 1 1 1 0 0 1 2 2 3 3 3 4 4 5 5 5 5 5 5 5 6 6 6 6 6 7 7 7 7 7 6
6 6 5 5 5 5 4 4 4 3 2 2 2 1 1 0 1 2 2 3 3 3 4 5 4 5 5 4 5 5 5 5 6 7 6 6 7 8 8 8 8 8 7
7 6 6 6 5 4 4 3 3 3 2 2 1 0 1 2 2 2 2 3 4 4 4 4 4 5 5 5 5 5 5 5 6 7 7 7 8 8 8 9 9 8 8
6 6 6 6 5 4 3 3 3 3 2 1 0 1 2 3 4 4 4 5 5 5 5 5 5 5 6 6 6 7 7 7 7 7 8 8 8 8 8 9 9 9 9
7 6 6 5 4 4 4 3 3 3 2 2 2 3 3 4 5 5 6 7 7 6 6 6 7 7 7 7 8 8 8 8 8 8 9 9 9 9 9 10 10 11 11
8 8 7 6 5 5 4 4 4 4 4 4 4 5 6 6 6 6 7 8 9 8 7 7 8 9 8 9 9 9 10 10 11 11 11 11 11 11 11 12 12 12 12
Wind_Direction
102 103 105 106 107 108 105 104 109 113 114 110 109 108 107 108 112 111 112 111 111 109 106 103 101 107 110 111 111 111 108 107 105 105 103 102 106 106 99 92 91 93 94
113 113 111 111 109 114 110 108 105 108 115 115 109 107 104 102 107 111 113 112 109 105 100 100 103 108 109 110 110 111 108 105 106 104 102 102 104 100 95 89 88 95 97
111 109 111 112 113 116 116 114 111 108 109 114 111 109 106 103 104 109 114 112 108 105 102 102 107 107 108 108 109 109 107 104 104 104 104 102 97 96 92 87 91 102 107
99 106 107 114 120 121 122 123 122 117 112 111 110 112 110 110 111 109 114 111 105 103 104 104 106 109 108 106 106 106 105 100 99 103 103 101 97 96 88 87 91 99 106
91 102 106 109 114 117 123 127 126 121 111 108 104 109 110 109 113 105 108 109 104 104 110 106 104 107 108 106 105 104 106 105 107 106 102 97 98 96 90 90 91 93 94
92 103 104 105 114 124 132 132 133 128 117 112 105 110 111 107 106 103 111 106 103 104 108 104 103 106 106 104 103 97 98 109 114 112 102 98 98 101 93 92 95 90 82
88 97 102 106 116 127 135 137 132 129 127 120 117 117 114 110 108 112 116 106 99 98 99 98 100 103 99 100 97 94 92 104 116 115 105 108 109 109 100 92 88 84 81
76 91 102 105 107 117 132 132 126 112 111 111 110 107 105 104 105 111 104 100 101 96 93 98 99 96 105 99 92 89 94 112 112 115 110 109 113 120 106 90 82 81 81
80 89 96 101 95 106 126 134 139 127 123 112 105 101 104 107 105 106 99 96 98 95 91 95 93 93 107 112 106 98 101 108 108 108 99 117 134 107 95 113 96 90 77
85 85 92 95 96 101 118 134 133 131 120 107 101 105 111 107 103 104 98 93 93 89 85 89 88 92 108 123 121 101 95 91 89 76 76 129 194 4 210 163 131 107 56
78 82 86 93 99 105 112 132 135 139 127 103 92 90 105 99 95 105 102 104 99 89 89 86 90 104 114 127 143 120 91 88 74 37 34 275 252 55 34 27 79 54 3
69 76 75 82 93 99 108 126 138 140 128 105 90 87 93 88 85 98 105 104 95 105 94 75 92 115 123 121 122 98 58 34 33 31 38 328 131 37 15 7 341 331 325
65 64 64 69 81 92 109 124 135 133 121 106 100 98 100 94 81 85 91 96 97 121 111 89 85 104 127 119 107 74 13 11 8 350 88 232 247 290 336 355 342 328 320
70 71 72 71 70 79 94 108 122 121 124 119 111 121 145 117 75 81 81 80 97 118 148 154 165 167 150 116 358 320 316 332 325 285 275 265 263 260 265 286 316 321 320
70 71 69 71 73 77 85 97 126 132 133 130 132 135 150 121 59 65 49 53 144 149 163 164 219 220 204 254 317 316 297 308 313 276 271 264 265 262 268 280 289 292 303
66 70 68 68 72 78 83 92 115 125 127 114 97 107 102 101 82 73 61 111 139 148 185 203 204 218 249 278 318 322 318 300 283 272 274 273 276 277 280 291 291 283 290
61 64 64 66 70 77 80 87 102 111 115 118 96 99 104 132 119 108 86 104 104 110 137 153 181 189 265 296 304 310 312 304 293 289 288 286 281 277 279 287 297 289 285
60 58 58 64 70 72 76 80 91 98 113 107 96 111 119 157 123 85 93 85 84 93 112 80 317 298 296 301 299 301 310 310 292 281 276 276 278 281 285 289 289 291 288
55 51 53 59 60 65 71 70 91 89 94 93 95 119 144 179 132 99 68 42 30 320 275 322 317 308 305 300 297 297 297 297 293 276 271 277 277 276 283 293 296 295 289
46 47 53 51 50 52 57 60 64 69 68 77 110 139 179 240 310 36 9 352 352 317 308 327 319 309 311 303 297 295 294 290 286 278 274 273 276 279 281 289 288 292 289
37 41 42 40 39 38 43 47 48 47 50 57 99 161 156 146 353 359 354 345 345 341 338 339 332 322 315 311 309 300 294 293 289 282 274 276 277 279 280 282 283 284 286
23 26 30 31 28 28 34 34 32 30 35 40 52 158 170 126 311 323 336 322 325 327 328 331 330 324 318 318 320 313 305 305 296 291 288 286 286 282 278 277 276 277 280
12 15 15 17 15 16 14 15 15 13 15 33 58 185 223 267 281 287 301 312 312 316 320 319 320 319 320 322 321 318 308 299 299 296 291 289 286 286 284 280 278 274 274
3 5 6 9 10 8 2 6 9 356 344 346 338 275 252 265 273 279 288 300 310 309 310 313 315 313 316 314 313 314 310 305 299 299 295 291 288 288 288 286 283 279 278
348 348 348 345 344 344 343 344 343 341 331 297 289 290 286 280 279 276 285 290 296 298 300 299 300 302 303 304 305 308 302 300 298 294 296 293 289 286 286 288 288 284 282
324 326 326 320 313 315 316 314 314 315 313 308 298 291 294 287 285 281 283 286 288 289 289 293 294 294 297 299 300 301 300 299 298 294 292 290 288 286 284 280 281 282 283
Height
5901 5901 5902 5902 5903 5904 5904 5904 5904 5904 5904 5904 5905 5905 5905 5905 5906 5906 5906 5906 5906 5906 5906 5905 5905 5905 5905 5905 5905 5905 5905 5905 5905 5905 5904 5904 5904 5903 5903 5902 5902 5902 5902
5903 5902 5903 5904 5904 5905 5905 5905 5905 5905 5905 5906 5906 5906 5906 5906 5907 5907 5907 5907 5907 5907 5907 5906 5906 5906 5906 5906 5906 5906 5906 5906 5905 5905 5905 5905 5905 5904 5904 5903 5903 5902 5902
5904 5904 5904 5905 5905 5906 5906 5906 5907 5907 5907 5907 5907 5907 5907 5907 5908 5908 5907 5907 5907 5907 5908 5907 5907 5907 5907 5907 5907 5907 5907 5906 5906 5906 5906 5906 5905 5905 5904 5904 5903 5903 5903
5905 5905 5905 5906 5906 5907 5907 5907 5908 5908 5909 5909 5909 5909 5909 5909 5909 5909 5908 5908 5908 5908 5909 5909 5908 5908 5908 5908 5908 5908 5907 5907 5906 5906 5906 5906 5906 5906 5905 5905 5904 5904 5904
5906 5906 5906 5907 5907 5908 5908 5908 5909 5909 5910 5910 5910 5910 5910 5910 5910 5910 5909 5909 5909 5909 5909 5909 5909 5909 5909 5909 5909 5908 5908 5907 5907 5907 5907 5907 5907 5907 5906 5906 5905 5905 5905
5907 5907 5907 5908 5908 5908 5909 5909 5910 5910 5910 5911 5911 5910 5911 5910 5910 5910 5910 5910 5910 5910 5910 5910 5910 5910 5909 5909 5909 5909 5908 5908 5908 5908 5908 5908 5908 5908 5907 5907 5906 5906 5905
5907 5907 5908 5908 5909 5909 5909 5910 5910 5911 5911 5911 5911 5911 5911 5911 5911 5911 5911 5911 5911 5910 5910 5910 5910 5910 5910 5910 5910 5910 5909 5909 5909 5908 5909 5909 5908 5908 5908 5907 5906 5906 5906
5908 5908 5908 5909 5909 5910 5910 5911 5911 5912 5912 5912 5912 5912 5912 5912 5912 5911 5911 5911 5911 5911 5911 5911 5911 5911 5910 5910 5910 5910 5910 5909 5909 5909 5909 5909 5909 5908 5908 5907 5907 5906 5906
5908 5909 5909 5910 5910 5910 5911 5911 5912 5912 5912 5912 5912 5912 5912 5912 5912 5912 5912 5912 5912 5912 5911 5911 5911 5911 5911 5911 5911 5911 5910 5910 5909 5909 5909 5909 5909 5908 5908 5907 5907 5907 5906
5909 5909 5910 5910 5911 5911 5911 5911 5912 5913 5913 5913 5913 5913 5913 5913 5913 5913 5913 5913 5912 5912 5912 5912 5911 5911 5911 5911 5911 5911 5911 5910 5910 5909 5909 5909 5908 5908 5908 5907 5907 5906 5906
5911 5911 5911 5911 5911 5911 5911 5912 5912 5913 5913 5913 5913 5913 5913 5913 5913 5913 5913 5913 5913 5913 5912 5912 5912 5911 5911 5911 5911 5911 5911 5910 5910 5909 5909 5909 5908 5908 5907 5907 5907 5906 5906
5912 5912 5912 5912 5912 5912 5912 5912 5913 5913 5913 5914 5914 5914 5914 5914 5914 5914 5913 5913 5913 5913 5913 5912 5912 5912 5911 5912 5912 5911 5911 5910 5909 5909 5909 5909 5908 5908 5907 5907 5907 5906 5906
5913 5913 5913 5913 5912 5912 5912 5913 5913 5913 5914 5914 5914 5914 5914 5914 5914 5914 5914 5914 5913 5913 5913 5912 5912 5912 5912 5912 5912 5911 5911 5910 5910 5909 5909 5908 5908 5908 5907 5907 5906 5906 5905
5915 5914 5914 5914 5914 5913 5913 5913 5913 5914 5914 5914 5914 5914 5914 5915 5915 5914 5914 5914 5913 5913 5913 5912 5912 5912 5912 5912 5912 5911 5911 5910 5910 5909 5909 5908 5908 5907 5907 5906 5906 5905 5905
5915 5915 5915 5915 5914 5914 5914 5914 5914 5914 5914 5915 5915 5915 5915 5915 5915 5914 5914 5913 5913 5913 5913 5912 5912 5912 5912 5912 5912 5911 5910 5910 5909 5909 5908 5908 5907 5906 5906 5906 5905 5904 5904
5916 5915 5915 5915 5915 5915 5915 5914 5914 5914 5915 5915 5915 5915 5915 5915 5915 5915 5914 5914 5913 5913 5913 5912 5912 5912 5912 5912 5911 5910 5910 5909 5909 5908 5908 5907 5907 5906 5906 5905 5904 5904 5903
5917 5916 5916 5916 5915 5915 5915 5914 5914 5914 5915 5915 5915 5915 5915 5915 5915 5915 5915 5914 5914 5913 5913 5912 5912 5912 5912 5912 5911 5910 5909 5909 5908 5908 5907 5907 5906 5906 5905 5904 5904 5903 5902
5918 5917 5917 5917 5916 5916 5915 5914 5914 5915 5915 5915 5915 5915 5915 5915 5915 5915 5915 5915 5914 5913 5913 5913 5912 5912 5911 5911 5910 5910 5909 5908 5908 5907 5906 5906 5905 5905 5904 5903 5902 5902 5901
5919 5918 5917 5917 5917 5916 5916 5915 5915 5915 5915 5915 5915 5915 5915 5915 5914 5915 5915 5915 5914 5913 5913 5912 5912 5911 5910 5910 5909 5909 5908 5907 5907 5906 5905 5905 5904 5903 5903 5902 5901 5901 5900
5919 5918 5918 5917 5917 5916 5916 5916 5915 5915 5914 5914 5914 5915 5915 5915 5915 5915 5915 5915 5914 5913 5912 5912 5911 5910 5909 5908 5908 5907 5907 5906 5905 5905 5904 5903 5903 5902 5902 5901 5900 5899 5899
5920 5919 5918 5918 5917 5916 5916 5916 5915 5915 5915 5914 5913 5914 5914 5915 5915 5915 5915 5914 5913 5913 5912 5911 5910 5909 5908 5907 5906 5905 5905 5905 5904 5903 5903 5902 5901 5901 5900 5899 5898 5898 5897
5920 5919 5918 5918 5917 5917 5916 5916 5915 5915 5914 5914 5913 5913 5914 5914 5914 5914 5914 5913 5913 5912 5911 5910 5909 5908 5907 5906 5905 5904 5903 5903 5902 5901 5901 5900 5899 5898 5897 5896 5896 5895 5895
5920 5919 5918 5917 5917 5916 5916 5916 5915 5915 5914 5914 5913 5913 5913 5913 5913 5913 5913 5912 5911 5910 5910 5909 5908 5907 5906 5905 5904 5903 5902 5902 5901 5900 5899 5898 5897 5896 5895 5894 5893 5892 5892
5919 5919 5918 5917 5917 5916 5916 5915 5914 5914 5914 5913 5913 5913 5912 5912 5912 5911 5911 5911 5910 5909 5908 5907 5906 5905 5904 5904 5903 5902 5901 5900 5899 5899 5898 5896 5895 5894 5893 5892 5891 5890 5889
5919 5918 5917 5917 5916 5916 5915 5914 5914 5913 5913 5912 5912 5911 5911 5910 5909 5909 5909 5908 5908 5907 5906 5905 5904 5903 5902 5902 5901 5900 5899 5898 5897 5896 5895 5894 5893 5892 5891 5890 5889 5888 5887
5918 5917 5917 5916 5915 5915 5914 5913 5913 5912 5911 5911 5910 5909 5909 5908 5907 5906 5906 5906 5905 5904 5903 5902 5901 5901 5900 5899 5898 5897 5896 5895 5894 5893 5892 5891 5890 5889 5888 5887 5886 5884 5884